RJA94P OJAQ-OMAL

Flight info

Callsign RJA94P
Flight time N/A
Altitude 39000
Route TAMIM DCT NIMAR DCT DOH/N0392F270 B415 SIXIV N318 KANIP
Aircraft A319/M-SDE3FGHIRWY/LB1

Departure

Time 2026-05-05 06:08
Airport King Hussein International Airport (OJAQ)

Arrival

Time N/A
Airport Al Ain International Airport (OMAL)
Time Latitude Longitude Altitude Speed Heading
2026-05-05 06:01 29.60967 35.02004 176 ft 0 kts 107°
2026-05-05 06:03 29.60969 35.01998 176 ft 3 kts 107°
2026-05-05 06:04 29.60974 35.01978 176 ft 3 kts 107°
2026-05-05 06:04 29.60979 35.01958 176 ft 3 kts 107°
2026-05-05 06:04 29.60985 35.01937 176 ft 3 kts 107°
2026-05-05 06:04 29.60986 35.01929 176 ft 1 kts 119°
2026-05-05 06:05 29.60935 35.01918 176 ft 17 kts 199°
2026-05-05 06:05 29.60809 35.01867 176 ft 22 kts 198°
2026-05-05 06:05 29.60616 35.01802 176 ft 30 kts 198°
2026-05-05 06:05 29.60430 35.01735 176 ft 26 kts 193°
2026-05-05 06:06 29.60263 35.01680 176 ft 23 kts 195°
2026-05-05 06:06 29.60115 35.01632 176 ft 21 kts 195°
2026-05-05 06:06 29.59984 35.01591 176 ft 18 kts 193°
2026-05-05 06:06 29.59866 35.01549 176 ft 18 kts 199°
2026-05-05 06:07 29.59782 35.01483 176 ft 12 kts 258°
2026-05-05 06:07 29.59791 35.01440 176 ft 5 kts 287°
2026-05-05 06:07 29.59803 35.01396 176 ft 8 kts 290°
2026-05-05 06:07 29.59843 35.01354 176 ft 12 kts 356°
2026-05-05 06:08 29.60000 35.01397 173 ft 55 kts 15°
2026-05-05 06:08 29.60598 35.01601 175 ft 125 kts 18°
2026-05-05 06:08 29.61579 35.02003 565 ft 159 kts 23°
2026-05-05 06:08 29.62438 35.02440 1208 ft 167 kts 11°
2026-05-05 06:09 29.63534 35.02631 2025 ft 168 kts
2026-05-05 06:09 29.64708 35.02792 2808 ft 171 kts
2026-05-05 06:09 29.65732 35.02933 3481 ft 176 kts
2026-05-05 06:09 29.67007 35.03129 4062 ft 193 kts
2026-05-05 06:10 29.68310 35.03340 4951 ft 191 kts
2026-05-05 06:10 29.69606 35.03569 5862 ft 187 kts
2026-05-05 06:10 29.70795 35.03785 6495 ft 196 kts
2026-05-05 06:10 29.72233 35.04045 6851 ft 222 kts
2026-05-05 06:11 29.73818 35.04455 7361 ft 244 kts 11°
2026-05-05 06:11 29.75506 35.05028 7962 ft 262 kts 13°
2026-05-05 06:11 29.77293 35.05710 8620 ft 278 kts 14°
2026-05-05 06:11 29.79171 35.06472 9326 ft 293 kts 15°
2026-05-05 06:12 29.81117 35.07285 10167 ft 301 kts 15°
2026-05-05 06:12 29.83073 35.08116 10938 ft 307 kts 15°
2026-05-05 06:12 29.85141 35.08994 11445 ft 325 kts 15°
2026-05-05 06:12 29.87347 35.09922 11957 ft 342 kts 14°
2026-05-05 06:13 29.89627 35.10880 12488 ft 356 kts 14°
2026-05-05 06:13 29.91935 35.12087 13045 ft 377 kts 29°
2026-05-05 06:13 29.93878 35.14199 13796 ft 392 kts 50°
2026-05-05 06:13 29.95150 35.17012 14477 ft 402 kts 71°
2026-05-05 06:14 29.95600 35.20150 15140 ft 407 kts 91°
2026-05-05 06:14 29.95185 35.23377 15796 ft 406 kts 111°
2026-05-05 06:14 29.93913 35.26297 16451 ft 402 kts 131°
2026-05-05 06:14 29.91989 35.28513 17089 ft 393 kts 151°
2026-05-05 06:15 29.89586 35.29875 17732 ft 380 kts 172°
2026-05-05 06:15 29.87018 35.30197 18397 ft 366 kts 192°
2026-05-05 06:15 29.84622 35.29461 18977 ft 352 kts 213°
2026-05-05 06:15 29.82540 35.28007 19570 ft 350 kts 219°
2026-05-05 06:16 29.80483 35.26488 20192 ft 354 kts 217°
2026-05-05 06:16 29.78212 35.25277 20725 ft 367 kts 204°
2026-05-05 06:16 29.75636 35.24863 21258 ft 388 kts 185°
2026-05-05 06:16 29.72930 35.25523 21810 ft 410 kts 166°
2026-05-05 06:17 29.70421 35.27225 22342 ft 430 kts 147°
2026-05-05 06:17 29.68241 35.29655 22878 ft 440 kts 140°
2026-05-05 06:17 29.66173 35.32278 23396 ft 445 kts 138°
2026-05-05 06:17 29.64124 35.34959 23852 ft 449 kts 138°
2026-05-05 06:18 29.62053 35.37668 24273 ft 452 kts 138°
2026-05-05 06:18 29.59957 35.40367 24653 ft 455 kts 139°
2026-05-05 06:18 29.57821 35.43054 25109 ft 456 kts 140°
2026-05-05 06:18 29.55680 35.45717 25374 ft 466 kts 137°
2026-05-05 06:19 29.53880 35.48999 25423 ft 494 kts 120°
2026-05-05 06:19 29.52855 35.52790 25476 ft 516 kts 103°
2026-05-05 06:19 29.52682 35.56944 25800 ft 526 kts 87°
2026-05-05 06:19 29.53396 35.61071 26220 ft 527 kts 71°
2026-05-05 06:20 29.54825 35.64935 26658 ft 527 kts 62°
2026-05-05 06:20 29.56457 35.68714 27087 ft 528 kts 61°
2026-05-05 06:20 29.58084 35.72495 27512 ft 529 kts 63°
2026-05-05 06:20 29.59630 35.76347 27968 ft 530 kts 65°
2026-05-05 06:21 29.60755 35.80375 28385 ft 531 kts 80°
2026-05-05 06:21 29.61036 35.83217 28670 ft 529 kts 91°
2026-05-05 06:21 29.60894 35.87365 29115 ft 526 kts 98°
2026-05-05 06:21 29.60525 35.91547 29553 ft 525 kts 101°
2026-05-05 06:22 29.60081 35.95708 30011 ft 525 kts 102°
2026-05-05 06:22 29.59605 35.99863 30413 ft 524 kts 103°
2026-05-05 06:22 29.59114 36.04008 30813 ft 524 kts 103°
2026-05-05 06:22 29.58619 36.08148 31213 ft 523 kts 103°
2026-05-05 06:23 29.58125 36.12286 31615 ft 522 kts 103°
2026-05-05 06:23 29.57634 36.16416 32005 ft 521 kts 103°
2026-05-05 06:23 29.57145 36.20541 32399 ft 521 kts 103°
2026-05-05 06:23 29.56660 36.24663 32787 ft 520 kts 103°
2026-05-05 06:24 29.56177 36.28796 33177 ft 520 kts 103°
2026-05-05 06:24 29.55698 36.32901 33559 ft 519 kts 103°
2026-05-05 06:24 29.55221 36.37015 33932 ft 519 kts 103°
2026-05-05 06:24 29.54745 36.41123 34254 ft 518 kts 103°
2026-05-05 06:25 29.54272 36.45222 34551 ft 518 kts 103°
2026-05-05 06:25 29.53845 36.48929 34805 ft 519 kts 103°
2026-05-05 06:25 29.53372 36.53038 35086 ft 519 kts 103°
2026-05-05 06:25 29.52900 36.57148 35366 ft 519 kts 103°
2026-05-05 06:26 29.52434 36.61209 35649 ft 519 kts 103°
2026-05-05 06:26 29.51958 36.65359 35923 ft 519 kts 103°
2026-05-05 06:26 29.51485 36.69469 36199 ft 518 kts 103°
2026-05-05 06:26 29.51013 36.73569 36459 ft 518 kts 103°
2026-05-05 06:27 29.50547 36.77624 36718 ft 518 kts 103°
2026-05-05 06:27 29.49599 36.85836 37230 ft 518 kts 103°
2026-05-05 06:27 29.49118 36.89993 37485 ft 518 kts 103°
2026-05-05 06:28 29.48642 36.94093 37729 ft 518 kts 103°
2026-05-05 06:28 29.48174 36.98129 37962 ft 518 kts 103°
2026-05-05 06:28 29.47696 37.02236 38200 ft 518 kts 103°
2026-05-05 06:28 29.47217 37.06338 38402 ft 518 kts 103°
2026-05-05 06:29 29.46736 37.10448 38628 ft 518 kts 103°
2026-05-05 06:29 29.46256 37.14544 38829 ft 517 kts 103°
2026-05-05 06:29 29.45781 37.18605 38942 ft 510 kts 103°
2026-05-05 06:30 29.44831 37.26678 39026 ft 513 kts 103°
2026-05-05 06:30 29.43859 37.34835 39038 ft 520 kts 103°
2026-05-05 06:31 29.42875 37.43086 39046 ft 521 kts 103°
2026-05-05 06:31 29.41897 37.51285 39044 ft 515 kts 103°
2026-05-05 06:32 29.40923 37.59413 39054 ft 515 kts 104°
2026-05-05 06:32 29.39936 37.67566 39055 ft 517 kts 104°
2026-05-05 06:33 29.38948 37.75690 39060 ft 518 kts 104°
2026-05-05 06:33 29.37958 37.83802 39065 ft 516 kts 104°
2026-05-05 06:34 29.36952 37.91994 39064 ft 522 kts 104°
2026-05-05 06:34 29.35927 38.00277 39068 ft 525 kts 104°
2026-05-05 06:35 29.34907 38.08530 39069 ft 521 kts 104°
2026-05-05 06:35 29.33888 38.16743 39072 ft 519 kts 104°
2026-05-05 06:36 29.32860 38.24948 39077 ft 521 kts 104°
2026-05-05 06:36 29.31822 38.33191 39078 ft 522 kts 104°
2026-05-05 06:37 29.30780 38.41432 39080 ft 521 kts 104°
2026-05-05 06:37 29.29739 38.49634 39087 ft 520 kts 104°
2026-05-05 06:38 29.28691 38.57843 39092 ft 521 kts 104°
2026-05-05 06:38 29.27641 38.66012 39091 ft 522 kts 104°
2026-05-05 06:39 29.26580 38.74233 39091 ft 521 kts 104°
2026-05-05 06:39 29.25516 38.82438 39088 ft 520 kts 104°
2026-05-05 06:40 29.24448 38.90637 39093 ft 521 kts 105°
2026-05-05 06:40 29.23371 38.98848 39095 ft 522 kts 105°
2026-05-05 06:41 29.22290 39.07069 39093 ft 522 kts 105°
2026-05-05 06:41 29.21208 39.15253 39094 ft 520 kts 105°
2026-05-05 06:42 29.20117 39.23469 39097 ft 521 kts 105°
2026-05-05 06:42 29.19021 39.31668 39099 ft 522 kts 105°
2026-05-05 06:43 29.17919 39.39896 39099 ft 521 kts 105°
2026-05-05 06:43 29.16818 39.48076 39095 ft 520 kts 105°
2026-05-05 06:44 29.15706 39.56268 39098 ft 521 kts 105°
2026-05-05 06:44 29.14591 39.64461 39097 ft 522 kts 105°
2026-05-05 06:45 29.13468 39.72665 39103 ft 520 kts 105°
2026-05-05 06:45 29.12346 39.80827 39100 ft 520 kts 105°
2026-05-05 06:46 29.11106 39.88964 39114 ft 515 kts 111°
2026-05-05 06:46 29.09208 39.96775 39095 ft 512 kts 115°
2026-05-05 06:47 29.07123 40.04520 39087 ft 511 kts 115°
2026-05-05 06:47 29.04990 40.12256 39082 ft 509 kts 116°
2026-05-05 06:48 29.02845 40.19959 39086 ft 510 kts 116°
2026-05-05 06:48 29.00681 40.27690 39087 ft 510 kts 116°
2026-05-05 06:49 28.98519 40.35402 39088 ft 509 kts 116°
2026-05-05 06:49 28.96358 40.43089 39084 ft 508 kts 116°
2026-05-05 06:50 28.94196 40.50757 39082 ft 508 kts 116°
2026-05-05 06:50 28.92019 40.58447 39079 ft 509 kts 116°
2026-05-05 06:51 28.89841 40.66130 39075 ft 508 kts 116°
2026-05-05 06:51 28.87665 40.73789 39073 ft 507 kts 116°
2026-05-05 06:52 28.85486 40.81440 39073 ft 507 kts 116°
2026-05-05 06:52 28.83304 40.89082 39065 ft 507 kts 116°
2026-05-05 06:53 28.81115 40.96725 39065 ft 507 kts 116°
2026-05-05 06:53 28.78920 41.04373 39059 ft 507 kts 116°
2026-05-05 06:54 28.76724 41.12006 39055 ft 507 kts 116°
2026-05-05 06:54 28.74527 41.19628 39053 ft 506 kts 117°
2026-05-05 06:55 28.72336 41.27211 39052 ft 506 kts 117°
2026-05-05 06:55 28.70132 41.34815 39050 ft 506 kts 117°
2026-05-05 06:56 28.67919 41.42429 39048 ft 507 kts 117°
2026-05-05 06:56 28.65702 41.50051 39040 ft 507 kts 117°
2026-05-05 06:57 28.63480 41.57668 39035 ft 506 kts 117°
2026-05-05 06:57 28.61263 41.65255 39032 ft 505 kts 117°
2026-05-05 06:58 28.59042 41.72838 39034 ft 505 kts 117°
2026-05-05 06:58 28.56816 41.80421 39030 ft 505 kts 117°
2026-05-05 06:59 28.54585 41.88001 39025 ft 504 kts 117°
2026-05-05 06:59 28.52356 41.95558 39029 ft 504 kts 117°
2026-05-05 07:00 28.50121 42.03114 39023 ft 505 kts 117°
2026-05-05 07:00 28.47877 42.10683 39022 ft 505 kts 117°
2026-05-05 07:01 28.45628 42.18253 39017 ft 505 kts 117°
2026-05-05 07:01 28.43375 42.25818 39010 ft 505 kts 117°
2026-05-05 07:02 28.41120 42.33378 39012 ft 505 kts 117°
2026-05-05 07:02 28.38855 42.40947 39009 ft 506 kts 117°
2026-05-05 07:03 28.37001 42.47124 39001 ft 506 kts 117°
2026-05-05 07:03 28.34729 42.54685 39004 ft 505 kts 117°
2026-05-05 07:04 28.32454 42.62243 38997 ft 506 kts 117°
2026-05-05 07:04 28.30175 42.69796 38990 ft 506 kts 117°
2026-05-05 07:05 28.27894 42.77342 38988 ft 505 kts 117°
2026-05-05 07:05 28.25612 42.84876 38983 ft 504 kts 117°
2026-05-05 07:06 28.23332 42.92386 38975 ft 504 kts 117°
2026-05-05 07:06 28.21043 42.99905 38974 ft 504 kts 117°
2026-05-05 07:07 28.18752 43.07412 38968 ft 503 kts 117°
2026-05-05 07:07 28.16484 43.14839 38964 ft 501 kts 117°
2026-05-05 07:08 28.14199 43.22299 38955 ft 500 kts 117°
2026-05-05 07:08 28.11912 43.29746 38951 ft 501 kts 117°
2026-05-05 07:09 28.09624 43.37177 38945 ft 500 kts 118°
2026-05-05 07:09 28.07337 43.44598 38941 ft 498 kts 118°
2026-05-05 07:10 28.05049 43.52003 38946 ft 498 kts 118°
2026-05-05 07:10 28.02753 43.59412 38926 ft 498 kts 118°
2026-05-05 07:11 28.00455 43.66814 38924 ft 498 kts 118°
2026-05-05 07:11 27.98155 43.74204 38923 ft 498 kts 118°
2026-05-05 07:12 27.95856 43.81581 38916 ft 497 kts 118°
2026-05-05 07:12 27.93553 43.88952 38912 ft 497 kts 118°
2026-05-05 07:13 27.91248 43.96313 38910 ft 497 kts 118°
2026-05-05 07:13 27.88937 44.03673 38906 ft 496 kts 118°
2026-05-05 07:14 27.86627 44.11024 38904 ft 496 kts 118°
2026-05-05 07:14 27.84318 44.18355 38908 ft 495 kts 118°
2026-05-05 07:15 27.82006 44.25677 38899 ft 495 kts 118°
2026-05-05 07:15 27.79686 44.33007 38892 ft 495 kts 118°
2026-05-05 07:16 27.77365 44.40333 38890 ft 495 kts 118°
2026-05-05 07:16 27.75046 44.47635 38885 ft 494 kts 119°
2026-05-05 07:17 27.72727 44.54925 38883 ft 494 kts 119°
2026-05-05 07:17 27.70397 44.62223 38881 ft 494 kts 119°
2026-05-05 07:18 27.68063 44.69526 38878 ft 494 kts 119°
2026-05-05 07:18 27.65735 44.76803 38871 ft 493 kts 119°
2026-05-05 07:19 27.63412 44.84035 38871 ft 492 kts 119°
2026-05-05 07:19 27.61075 44.91300 38869 ft 493 kts 119°
2026-05-05 07:20 27.58733 44.98562 38864 ft 493 kts 119°
2026-05-05 07:20 27.56404 45.05771 38866 ft 493 kts 120°
2026-05-05 07:21 27.54050 45.13038 38863 ft 493 kts 120°
2026-05-05 07:21 27.51700 45.20286 38858 ft 492 kts 120°
2026-05-05 07:22 27.49345 45.27530 38856 ft 492 kts 120°
2026-05-05 07:22 27.46985 45.34771 38853 ft 493 kts 120°
2026-05-05 07:23 27.44613 45.42032 38855 ft 494 kts 120°
2026-05-05 07:23 27.42244 45.49275 38853 ft 493 kts 120°
2026-05-05 07:24 27.39873 45.56514 38852 ft 492 kts 120°
2026-05-05 07:24 27.37498 45.63744 38855 ft 493 kts 120°
2026-05-05 07:25 27.35116 45.70980 38856 ft 494 kts 120°
2026-05-05 07:25 27.32730 45.78218 38855 ft 493 kts 120°
2026-05-05 07:26 27.30349 45.85432 38857 ft 493 kts 120°
2026-05-05 07:26 27.27951 45.92673 38859 ft 494 kts 120°
2026-05-05 07:27 27.25549 45.99908 38855 ft 494 kts 120°
2026-05-05 07:27 27.23146 46.07141 38853 ft 494 kts 120°
2026-05-05 07:28 27.20742 46.14366 38855 ft 493 kts 120°
2026-05-05 07:28 27.18332 46.21587 38858 ft 494 kts 120°
2026-05-05 07:29 27.15912 46.28821 38858 ft 495 kts 120°
2026-05-05 07:29 27.13489 46.36053 38860 ft 495 kts 120°
2026-05-05 07:30 27.11067 46.43275 38853 ft 494 kts 120°
2026-05-05 07:30 27.07438 46.54057 38854 ft 496 kts 120°
2026-05-05 07:31 27.04997 46.61293 38853 ft 496 kts 120°
2026-05-05 07:31 27.02555 46.68525 38850 ft 494 kts 120°
2026-05-05 07:32 27.00115 46.75734 38851 ft 495 kts 120°
2026-05-05 07:32 26.97664 46.82955 38849 ft 496 kts 120°
2026-05-05 07:33 26.95208 46.90175 38844 ft 496 kts 120°
2026-05-05 07:33 26.92752 46.97393 38845 ft 494 kts 120°
2026-05-05 07:34 26.90298 47.04589 38844 ft 495 kts 119°
2026-05-05 07:34 26.87834 47.11797 38845 ft 496 kts 119°
2026-05-05 07:35 26.85363 47.19010 38840 ft 495 kts 119°
2026-05-05 07:35 26.82897 47.26202 38842 ft 495 kts 119°
2026-05-05 07:36 26.80440 47.33344 38842 ft 496 kts 119°
2026-05-05 07:36 26.77957 47.40550 38845 ft 496 kts 119°
2026-05-05 07:37 26.75474 47.47747 38845 ft 495 kts 119°
2026-05-05 07:37 26.72993 47.54925 38845 ft 495 kts 119°
2026-05-05 07:38 26.70496 47.62131 38846 ft 497 kts 119°
2026-05-05 07:38 26.67996 47.69333 38843 ft 497 kts 119°
2026-05-05 07:39 26.65494 47.76526 38840 ft 496 kts 119°
2026-05-05 07:39 26.62993 47.83712 38843 ft 496 kts 119°
2026-05-05 07:40 26.60892 47.89732 38846 ft 497 kts 119°
2026-05-05 07:40 26.57962 47.98106 38842 ft 497 kts 119°
2026-05-05 07:41 26.55430 48.05339 38839 ft 496 kts 119°
2026-05-05 07:41 26.52916 48.12507 38837 ft 496 kts 119°
2026-05-05 07:42 26.50675 48.18879 38836 ft 496 kts 118°
2026-05-05 07:42 26.48999 48.23640 38833 ft 496 kts 119°
2026-05-05 07:43 26.46473 48.30802 38832 ft 495 kts 119°
2026-05-05 07:43 26.43952 48.37941 38829 ft 494 kts 118°
2026-05-05 07:44 26.41428 48.45075 38826 ft 494 kts 119°
2026-05-05 07:44 26.38904 48.52193 38825 ft 494 kts 118°
2026-05-05 07:45 26.36370 48.59328 38825 ft 494 kts 118°
2026-05-05 07:45 26.33841 48.66438 38814 ft 493 kts 118°
2026-05-05 07:46 26.31312 48.73532 38816 ft 492 kts 118°
2026-05-05 07:46 26.28778 48.80625 38810 ft 494 kts 118°
2026-05-05 07:47 26.26234 48.87734 38810 ft 493 kts 118°
2026-05-05 07:47 26.24125 48.93620 38808 ft 492 kts 118°
2026-05-05 07:48 26.21585 49.00696 38807 ft 492 kts 118°
2026-05-05 07:48 26.19036 49.07783 38803 ft 493 kts 118°
2026-05-05 07:49 26.16483 49.14865 38801 ft 492 kts 118°
2026-05-05 07:49 26.13937 49.21922 38796 ft 490 kts 118°
2026-05-05 07:50 26.11503 49.28657 38801 ft 490 kts 118°
2026-05-05 07:50 26.08954 49.35692 38791 ft 491 kts 118°
2026-05-05 07:51 26.06398 49.42735 38785 ft 490 kts 118°
2026-05-05 07:51 26.03865 49.49704 38780 ft 488 kts 118°
2026-05-05 07:52 26.01319 49.56698 38783 ft 487 kts 118°
2026-05-05 07:52 25.98772 49.63680 38779 ft 488 kts 118°
2026-05-05 07:53 25.96219 49.70665 38780 ft 487 kts 118°
2026-05-05 07:53 25.93668 49.77638 38779 ft 485 kts 118°
2026-05-05 07:54 25.91124 49.84579 38781 ft 485 kts 118°
2026-05-05 07:54 25.88574 49.91517 38784 ft 487 kts 118°
2026-05-05 07:55 25.86007 49.98491 38783 ft 487 kts 118°
2026-05-05 07:55 25.83448 50.05433 38781 ft 486 kts 118°
2026-05-05 07:56 25.80884 50.12381 38782 ft 486 kts 118°